Ravenna, OH

6:32 PM EST on February 05, 2016 (GMT -0500)
Ravenna

Weather History for KPOV - September, 2012

Change the Weather History Date:

Friday, September 7, 2012

  Actual Average (KCAK) Record (KCAK)
Temperature  
Mean Temperature 70 °F 66 °F  
Max Temperature 82 °F 76 °F 97 °F (1939)
Min Temperature 59 °F 57 °F 42 °F (1988)
Degree Days  
Heating Degree Days 0 2  
Month to date heating degree days 9  
Since 1 July heating degree days 29  
Cooling Degree Days 6 3  
Month to date cooling degree days 26  
Year to date cooling degree days 608  
Growing Degree Days 20 (Base 50)    
Moisture  
Dew Point 65 °F    
Average Humidity 91    
Maximum Humidity 100    
Minimum Humidity 57    
Precipitation  
Precipitation 0.38 in 0.11 in - ()
Month to date precipitation 0.82  
Year to date precipitation 28.02  
Snow  
Snow 0.00 in 0.00 in - ()
Month to date snowfall 0.0  
Since 1 July snowfall 0.0  
Since 1 September snowfall 0.0  
Snow Depth -    
Sea Level Pressure  
Sea Level Pressure 29.89 in    
Wind  
Wind Speed 2 mph (South)    
Max Wind Speed 12 mph    
Max Gust Speed 28 mph    
Visibility 6 miles    
Events      
T = Trace of Precipitation, MM = Missing Value Source: NWS Daily Summary

Daily Weather History Graph

Daily Weather History Graph

Search for Another Location

Airport or City:

Trip Planner

Search our weather history database for the weather conditions in past years. The results will help you decide how hot, cold, wet, or windy it might be!

Date:

Astronomy

Sep. 07, 2012 Rise Set
Actual Time 6:57 AM EDT 7:46 PM EDT
Civil Twilight 6:29 AM EDT 8:14 PM EDT
Nautical Twilight 5:56 AM EDT 8:47 PM EDT
Astronomical Twilight 5:22 AM EDT 9:22 PM EDT
Moon 11:37 PM EDT (9/7) 1:53 PM EDT (9/7)
Length of Visible Light 13h 44m
Length of Day
12h 49m
Waning Gibbous, 58% of the Moon is Illuminated
Sep 7
Waning Gibbous
Sep 8
Last Quarter
Sep 15
New
Sep 22
First Quarter
Sep 29
Full

Hourly Weather History & Observations

Time (EDT) Temp. Heat Index Dew Point Humidity Pressure Visibility Wind Dir Wind Speed Gust Speed Precip Events Conditions
12:13 AM 62.8 °F - 63.0 °F 100% 29.95 in 0.2 mi Calm Calm - N/A   Mostly Cloudy
12:32 AM 63.0 °F - 63.1 °F 100% 29.95 in 0.2 mi Calm Calm - N/A   Overcast
12:53 AM 61.9 °F - 62.1 °F 100% 29.95 in 1.0 mi Calm Calm - N/A   Mostly Cloudy
1:13 AM 62.4 °F - 62.6 °F 100% 29.95 in 1.8 mi Calm Calm - N/A   Unknown
1:33 AM 61.0 °F - 61.2 °F 100% 29.94 in 0.2 mi Calm Calm - N/A   Mostly Cloudy
1:53 AM 61.0 °F - 61.2 °F 100% 29.94 in 1.0 mi Calm Calm - N/A   Mostly Cloudy
2:13 AM 61.3 °F - 61.5 °F 100% 29.94 in 0.5 mi Calm Calm - N/A   Mostly Cloudy
2:33 AM 60.8 °F - 61.0 °F 100% 29.93 in 2.5 mi Calm Calm - N/A   Clear
2:53 AM 60.6 °F - 60.8 °F 100% 29.93 in 0.5 mi Calm Calm - N/A   Unknown
3:13 AM 61.0 °F - 61.2 °F 100% 29.93 in 1.8 mi Calm Calm - N/A   Unknown
3:32 AM - - - N/A% 29.92 in 0.5 mi Calm Calm - N/A   Mostly Cloudy
3:53 AM 61.0 °F - 61.2 °F 100% 29.92 in 0.5 mi Calm Calm - N/A   Unknown
4:13 AM 60.4 °F - 60.8 °F 100% 29.93 in 3.0 mi Calm Calm - N/A   Clear
4:32 AM 59.9 °F - 59.9 °F 100% 29.94 in 3.0 mi Calm Calm - N/A   Scattered Clouds
4:53 AM - - - N/A% 29.94 in 7.0 mi Calm Calm - N/A   Scattered Clouds
5:13 AM - - - N/A% 29.94 in 5.0 mi Calm Calm - N/A   Scattered Clouds
5:33 AM 59.9 °F - 60.1 °F 100% 29.94 in 4.0 mi Calm Calm - N/A   Scattered Clouds
5:53 AM 60.8 °F - 61.0 °F 100% 29.94 in 4.0 mi Calm Calm - N/A   Scattered Clouds
6:13 AM 61.0 °F - 61.2 °F 100% 29.94 in 4.0 mi Calm Calm - N/A   Scattered Clouds
6:32 AM 60.3 °F - 60.4 °F 100% 29.94 in 4.0 mi Calm Calm - N/A   Clear
6:53 AM 60.4 °F - 60.4 °F 100% 29.94 in 3.0 mi Calm Calm - N/A   Clear
7:13 AM 63.7 °F - 63.9 °F 100% 29.94 in 3.0 mi Calm Calm - N/A   Clear
7:33 AM 64.2 °F - 64.2 °F 100% 29.94 in 4.0 mi Calm Calm - N/A   Clear
7:53 AM 65.3 °F - 65.3 °F 100% 29.95 in 4.0 mi Calm Calm - N/A   Clear
8:13 AM 66.6 °F - 66.7 °F 100% 29.94 in 5.0 mi Calm Calm - N/A   Clear
8:32 AM 67.5 °F - 67.6 °F 100% 29.94 in 5.0 mi SSE 3.5 mph - N/A   Clear
8:53 AM 68.9 °F - 69.1 °F 100% 29.94 in 7.0 mi Calm Calm - N/A   Clear
9:13 AM 71.1 °F - 69.8 °F 96% 29.94 in 10.0 mi South 3.5 mph - N/A   Clear
9:32 AM 71.6 °F - 69.4 °F 93% 29.94 in 10.0 mi South 3.5 mph - N/A   Clear
9:53 AM 73.4 °F - 66.9 °F 80% 29.95 in 10.0 mi WSW 3.5 mph - N/A   Clear
10:13 AM 74.8 °F - 67.3 °F 77% 29.95 in 10.0 mi Calm Calm - N/A   Clear
10:32 AM 75.7 °F - 67.5 °F 75% 29.95 in 10.0 mi South 4.6 mph - N/A   Clear
10:53 AM 77.5 °F - 67.6 °F 71% 29.94 in 10.0 mi SW 6.9 mph - N/A   Clear
11:13 AM 77.9 °F - 67.5 °F 70% 29.94 in 10.0 mi WSW 6.9 mph - N/A   Clear
11:33 AM 79.0 °F - 67.5 °F 68% 29.94 in 10.0 mi SW 3.5 mph - N/A   Scattered Clouds
11:53 AM 79.7 °F - 68.4 °F 68% 29.94 in 10.0 mi WSW 5.8 mph - N/A   Mostly Cloudy
12:13 PM 79.9 °F - 66.9 °F 64% 29.94 in 10.0 mi WSW 9.2 mph - N/A   Mostly Cloudy
12:33 PM 80.6 °F 82.9 °F 66.7 °F 63% 29.93 in 10.0 mi WSW 5.8 mph - N/A   Scattered Clouds
12:53 PM 80.6 °F 82.8 °F 66.6 °F 62% 29.92 in 10.0 mi WSW 6.9 mph - N/A   Mostly Cloudy
1:13 PM 81.3 °F 84.0 °F 67.6 °F 63% 29.92 in 10.0 mi SSW 5.8 mph - N/A   Mostly Cloudy
1:33 PM 82.2 °F 84.2 °F 65.5 °F 57% 29.91 in 10.0 mi SW 8.1 mph - N/A   Scattered Clouds
1:53 PM 81.3 °F 83.6 °F 66.6 °F 61% 29.91 in 10.0 mi WSW 4.6 mph - N/A   Scattered Clouds
2:13 PM 80.6 °F 82.9 °F 67.1 °F 63% 29.90 in 10.0 mi WSW 4.6 mph - N/A   Mostly Cloudy
2:33 PM 80.1 °F 82.3 °F 66.9 °F 64% 29.89 in 10.0 mi SW 3.5 mph - N/A   Scattered Clouds
2:53 PM 79.0 °F - 66.4 °F 65% 29.88 in 10.0 mi WSW 3.5 mph - N/A   Mostly Cloudy
3:13 PM 74.8 °F - 66.0 °F 74% 29.91 in 3.0 mi SSW 9.2 mph 27.6 mph 0.09 in   Overcast
3:58 PM 70.9 °F - 71.1 °F 100% 29.87 in 10.0 mi Calm Calm - 0.10 in   Scattered Clouds
4:13 PM 70.7 °F - 70.7 °F 100% 29.87 in 7.0 mi Calm Calm - 0.01 in   Mostly Cloudy
4:33 PM 69.6 °F - 69.6 °F 100% 29.87 in 4.0 mi Calm Calm - 0.06 in   Mostly Cloudy
4:53 PM 69.8 °F - 69.8 °F 100% 29.88 in 7.0 mi Calm Calm - 0.06 in   Scattered Clouds
5:13 PM 69.3 °F - 69.4 °F 100% 29.89 in 5.0 mi WSW 9.2 mph 18.4 mph 0.05 in   Mostly Cloudy
5:32 PM 68.0 °F - 65.8 °F 93% 29.88 in 7.0 mi WSW 3.5 mph - 0.07 in   Mostly Cloudy
5:52 PM 66.7 °F - 66.9 °F 100% 29.91 in 3.0 mi SSW 6.9 mph 20.7 mph 0.19 in   Mostly Cloudy
6:13 PM 65.3 °F - 64.4 °F 97% 29.89 in 7.0 mi SE 4.6 mph - 0.02 in   Overcast
6:33 PM 64.4 °F - 64.4 °F 100% 29.82 in 10.0 mi East 11.5 mph - 0.03 in   Overcast
6:52 PM 65.5 °F - 65.3 °F 99% 29.83 in 10.0 mi Calm Calm - 0.03 in   Scattered Clouds
7:13 PM 65.5 °F - 65.7 °F 100% 29.81 in 10.0 mi ESE 3.5 mph - N/A   Clear
7:33 PM 64.6 °F - 64.8 °F 100% 29.79 in 10.0 mi Calm Calm - N/A   Clear
7:52 PM 63.9 °F - 64.0 °F 100% 29.80 in 10.0 mi Calm Calm - N/A   Clear
8:13 PM - - - N/A% 29.80 in 7.0 mi Calm Calm - N/A   Mostly Cloudy
8:33 PM - - - N/A% 29.78 in 7.0 mi ESE 4.6 mph - N/A   Scattered Clouds
8:53 PM 63.0 °F - 63.1 °F 100% 29.77 in 10.0 mi ESE 3.5 mph - N/A   Clear
9:13 PM 63.7 °F - 63.7 °F 100% 29.78 in 10.0 mi Calm Calm - N/A   Clear
9:33 PM 62.6 °F - 62.6 °F 100% 29.77 in 7.0 mi ESE 6.9 mph - N/A   Clear
9:52 PM 62.8 °F - 63.0 °F 100% 29.77 in 10.0 mi ESE 4.6 mph - N/A   Clear
10:13 PM 63.0 °F - 63.1 °F 100% 29.79 in 10.0 mi Calm Calm - N/A   Clear
10:33 PM - - - N/A% 29.77 in 7.0 mi ESE 3.5 mph - N/A   Clear
10:52 PM 63.5 °F - 63.7 °F 100% 29.77 in 10.0 mi ESE 3.5 mph - N/A   Clear
11:13 PM 63.7 °F - 63.9 °F 100% 29.75 in 7.0 mi ESE 3.5 mph - N/A   Clear
11:52 PM 64.4 °F - 64.4 °F 100% 29.73 in 10.0 mi ESE 3.5 mph - N/A   Clear